Location: Balsareny
(41.8670°N, 1.8830°E)
Time: 07:08:25
(UTC+01:00)

N. Korean satellite - Visible Passes

Search period start: 27 January 2021 00:00
Search period end: 06 February 2021 00:00
Orbit: 452 x 502 km, 97.2° (Epoch: 26 January)

Date Brightness Start Highest point End Pass type
(mag) Time Alt. Az. Time Alt. Az. Time Alt. Az.
27 Jan 6.2 06:27:04 10° N 06:30:32 79° WNW 06:33:55 10° SSW visible
27 Jan 10.0 18:36:58 10° WSW 18:38:51 14° W 18:40:45 10° WNW visible
28 Jan 7.6 06:00:37 10° NNE 06:03:54 42° E 06:07:08 10° S visible
28 Jan 8.4 07:35:44 10° NW 07:36:48 11° WNW 07:37:52 10° W visible
29 Jan 9.2 05:34:38 10° NE 05:37:10 19° E 05:39:40 10° SE visible
29 Jan 7.6 07:07:42 10° NNW 07:10:26 22° WNW 07:13:09 10° WSW visible
30 Jan 6.5 06:40:37 10° N 06:43:57 49° WNW 06:47:15 10° SSW visible
31 Jan 6.7 06:13:57 10° NNE 06:17:22 67° E 06:20:44 10° S visible
01 Feb 8.5 05:47:40 10° NE 05:50:40 28° E 05:53:38 10° SSE visible
01 Feb 8.1 07:21:38 10° NNW 07:23:45 16° WNW 07:25:52 10° WSW visible
02 Feb 9.7 05:22:10 10° ENE 05:23:52 13° E 05:25:34 10° ESE visible
02 Feb 7.1 06:54:13 10° N 06:57:18 32° WNW 07:00:22 10° SW visible
03 Feb 6.2 06:27:20 10° N 06:30:45 77° WNW 06:34:08 10° SSW visible
03 Feb 10.0 18:37:24 10° WSW 18:39:08 13° W 18:40:52 10° WNW visible
04 Feb 7.6 06:00:49 10° NNE 06:04:06 43° E 06:07:21 10° S visible
05 Feb 9.2 05:34:48 10° NE 05:37:20 19° E 05:39:52 10° SE visible
05 Feb 7.6 07:07:54 10° NNW 07:10:35 22° WNW 07:13:17 10° WSW visible
